EW4645 Weather Reports


time (UTC)temp
F
wind
direction
speed
knots
gust
knots
rain 1hr
in
rain 24hr
in
rain mn
in
humidity
%
barometer
mb
20260503010005 52 73 0.9 4.3 0.00 0.06 0.00 96 1009.9
20260503004504 52 132 0.0 5.2 0.00 0.06 0.00 96 1010.0
20260503001503 52 125 0.0 3.5 0.00 0.06 0.00 96 1010.1
20260503000007 52 124 0.9 5.2 0.00 0.06 0.00 96 1010.2
20260502234504 52 134 0.9 4.3 0.00 0.06 0.00 96 1010.3
20260502233006 52 136 0.9 6.1 0.00 0.06 0.00 96 1010.3
20260502231504 53 149 1.7 5.2 0.00 0.06 0.00 96 1010.4
20260502230009 53 147 1.7 8.7 0.00 0.06 0.00 96 1010.4
20260502224506 53 143 1.7 8.7 0.00 0.06 0.06 96 1010.4
20260502223006 53 148 1.7 7.8 0.00 0.06 0.06 96 1010.5
20260502221504 53 146 2.6 8.7 0.00 0.06 0.06 96 1010.6
20260502220006 53 157 2.6 10.4 0.00 0.06 0.06 96 1010.7
20260502211504 53 148 3.5 11.3 0.00 0.06 0.06 96 1010.6
20260502210006 53 140 3.5 10.4 0.01 0.06 0.06 96 1010.6
20260502204504 53 145 3.5 9.6 0.01 0.06 0.06 96 1010.6
20260502203005 53 144 3.5 13.0 0.01 0.06 0.06 96 1010.6
20260502201504 53 141 3.5 12.2 0.01 0.06 0.06 96 1010.6
20260502200005 53 155 3.5 10.4 0.00 0.06 0.06 96 1010.6
20260502194504 53 166 3.5 9.6 0.00 0.06 0.06 96 1010.6
20260502193006 53 145 4.3 10.4 0.00 0.06 0.06 96 1010.6
20260502191504 53 149 2.6 12.2 0.00 0.06 0.06 96 1010.6
20260502190005 53 146 3.5 13.0 0.01 0.06 0.06 96 1010.7
20260502184504 53 144 3.5 7.8 0.01 0.06 0.06 96 1010.7
20260502183006 53 152 4.3 13.0 0.01 0.06 0.06 96 1010.7
20260502181504 53 143 3.5 8.7 0.01 0.06 0.06 96 1010.8
20260502163006 52 118 4.3 9.6 0.01 0.04 0.04 94 1011.2
20260502161503 52 98 3.5 10.4 0.00 0.03 0.03 94 1011.1
20260502151503 53 138 2.6 10.4 0.01 0.03 0.03 93 1011.8
20260502123005 53 199 7.0 13.9 0.00 0.00 0.00 93 1013.6
20260502121503 53 196 8.7 19.1 0.00 0.00 0.00 93 1013.6
20260502114504 53 195 7.8 15.6 0.00 0.00 0.00 93 1013.9
20260502111503 53 199 7.0 14.8 0.00 0.00 0.00 93 1013.9
20260502104503 53 200 8.7 21.7 0.00 0.00 0.00 93 1014.1
20260502101503 53 199 7.8 18.2 0.00 0.00 0.00 92 1014.2
20260502091504 53 198 3.5 11.3 0.00 0.00 0.00 92 1014.4
20260502070006 53 203 5.2 13.9 0.00 0.00 0.00 93 1014.7
20260502064504 52 198 6.1 15.6 0.00 0.00 0.00 93 1014.7
20260502063005 52 204 6.1 13.0 0.00 0.00 0.00 93 1014.8
20260502060005 52 201 7.8 16.5 0.00 0.00 0.00 94 1014.8
20260502053006 52 204 5.2 15.6 0.00 0.00 0.00 94 1014.7
20260502051503 52 203 6.1 13.0 0.00 0.00 0.00 94 1014.8
20260502050005 52 204 7.0 12.2 0.00 0.00 0.00 94 1014.8
20260502043005 52 204 5.2 12.2 0.00 0.00 0.00 93 1014.9
20260502041505 52 211 3.5 13.9 0.00 0.00 0.00 94 1015.1
20260502034504 52 205 7.0 12.2 0.00 0.00 0.00 94 1015.3
20260502033005 52 212 7.8 16.5 0.00 0.00 0.00 94 1015.4
20260502031503 53 213 2.6 17.4 0.00 0.00 0.00 94 1015.5
20260502030005 52 204 3.5 10.4 0.00 0.00 0.00 94 1015.7
20260502024503 52 208 5.2 11.3 0.00 0.00 0.00 94 1015.7
20260502023005 52 206 6.1 13.9 0.00 0.00 0.00 94 1015.8
20260502014503 52 206 1.7 8.7 0.00 0.00 0.00 95 1016.4
20260502013005 52 206 2.6 10.4 0.00 0.00 0.00 95 1016.6
20260502011503 53 220 1.7 9.6 0.00 0.00 0.00 95 1016.8